Location: Unspecified
(0.0000°N, 0.0000°E)
Time: 22:53:30
(UTC+00:00)

deb Blok Kosmos - Pass Details

Date: 14 December 2025
Orbit: 1262 x 1713 km, 55.4° (Epoch: 19 January)

Event Time Altitude Azimuth Distance (km) Brightness Sun altitude
Rises 21:40:41 0° 252° (WSW) 4,629 ? -49.9°
Reaches altitude 10° 21:45:17 10° 272° (W) 3,735 ? -50.8°
Enters shadow 21:48:47 15° 294° (WNW) 3,396 ? -51.5°
